Stations météo

Publicité
Annecy-Meythet, France (7490): Température de l'air & dewpoint: 11.07.2018 06:00:00 - 17.07.2018 06:00:00 (CEST)Annecy-Meythet, France (7490): Température de l'air 5cm: 11.07.2018 06:00:00 - 17.07.2018 06:00:00 (CEST)Annecy-Meythet, France (7490): Température de l'air -20cm & Température de l'air -100cm: 11.07.2018 06:00:00 - 17.07.2018 06:00:00 (CEST)Annecy-Meythet, France (7490): Vitesse du vent & gusts: 11.07.2018 06:00:00 - 17.07.2018 06:00:00 (CEST)Annecy-Meythet, France (7490): Direction du vent: 11.07.2018 06:00:00 - 17.07.2018 06:00:00 (CEST)Annecy-Meythet, France (7490): reduced air pressure: 11.07.2018 06:00:00 - 17.07.2018 06:00:00 (CEST)Annecy-Meythet, France (7490): visibility: 11.07.2018 06:00:00 - 17.07.2018 06:00:00 (CEST)Annecy-Meythet, France (7490): Quantités de précipitations: 11.07.2018 06:00:00 - 17.07.2018 06:00:00 (CEST)
Date & Time tt [°C] td [°C] tt 5cm [°C] tt -20cm [°C] tt -100cm [°C] ff [km/h] ff [knt] fx [km/h] fx [knt] dd ppp [hPa] vv [km] rr [mm]
17.07.2018 06:00:00 15,0 12,7 13,0 21,9 19,1 7 4 11 6 NE 1016,6 32 0,0
17.07.2018 05:00:00 15,3 12,4 13,0 22,2 19,1 6 4 11 6 NNE 1016,0 41 0,0
17.07.2018 04:00:00 15,8 12,5 13,7 22,5 19,1 6 4 10 5 NNE 1015,5 59 0,0
17.07.2018 03:00:00 16,9 13,0 15,0 22,8 19,1 6 4 11 6 NNE 1015,1 57 0,0
17.07.2018 02:00:00 18,5 12,7 15,3 23,1 19,1 6 3 10 6 NW 1014,5 59 0,0
17.07.2018 01:00:00 19,6 12,1 16,8 23,4 19,1 5 3 13 7 ENE 1013,9 60 0,0
17.07.2018 00:00:00 21,5 11,5 18,1 23,8 19,1 5 3 37 20 NW 1013,4 20 0,0
16.07.2018 23:00:00 22,6 11,0 19,9 24,1 19,0 5 3 22 12 NW 1012,3 60 0,0
16.07.2018 22:00:00 23,7 12,3 22,3 24,4 19,0 11 6 21 12 NW 1010,9 60 0,0
16.07.2018 21:00:00 24,5 13,1 23,7 24,7 19,0 11 6 18 10 NW 1009,7 60 0,0
16.07.2018 20:00:00 25,7 11,8 25,1 24,9 19,0 10 6 22 12 NNW 1008,9 49 0,0
16.07.2018 19:00:00 28,2 11,7 30,5 24,9 19,0 13 7 37 20 NNW 1007,7 53 0,0
16.07.2018 18:00:00 29,7 11,2 35,0 24,6 19,0 10 5 27 14 NNE 1007,0 60 0,0
16.07.2018 17:00:00 29,2 12,6 34,2 24,2 19,0 12 7 29 15 NNW 1007,0 60 0,0
16.07.2018 16:00:00 29,3 12,3 33,5 23,7 19,0 14 8 30 16 NW 1007,3 58 0,0
16.07.2018 15:00:00 28,2 12,1 32,6 23,1 19,0 17 9 32 17 NW 1008,1 56 0,0
16.07.2018 14:00:00 27,2 13,5 30,8 22,5 19,0 16 9 31 17 NW 1009,0 60 0,0
16.07.2018 13:00:00 26,1 14,2 30,0 21,9 19,0 15 8 29 16 NW 1009,9 60 0,0
16.07.2018 12:00:00 25,1 15,7 28,5 21,4 19,0 11 6 28 15 NW 1010,4 60 0,0
16.07.2018 11:00:00 22,6 15,2 26,5 21,1 19,0 11 6 23 12 W 1011,5 60 0,0
16.07.2018 10:00:00 21,6 14,3 24,4 20,9 19,0 6 3 16 9 W 1012,2 59 0,0
16.07.2018 09:00:00 20,0 13,2 18,6 20,9 19,0 3 1 9 5 NNW 1013,2 54 0,0
16.07.2018 08:00:00 17,3 13,6 13,7 21,0 19,0 5 3 11 6 NNW 1014,2 50 0,0
16.07.2018 07:00:00 15,1 13,3 11,7 21,2 19,0 0 0 9 5 N 1014,7 52 0,0
16.07.2018 06:00:00 13,6 12,2 11,7 21,5 19,0 3 1 11 6 NE 1015,3 60 0,0
16.07.2018 05:00:00 13,5 12,6 11,8 21,8 19,0 8 4 10 6 NNE 1015,6 52 0,0
16.07.2018 04:00:00 13,8 12,7 12,5 22,1 19,0 8 4 10 6 ENE 1016,1 59 0,0
16.07.2018 03:00:00 15,1 12,6 13,1 22,4 19,0 4 2 17 9 NNE 1016,4 60 0,0
16.07.2018 02:00:00 15,6 13,4 13,9 22,7 19,0 14 8 18 10 NE 1016,3 60 0,0
16.07.2018 01:00:00 16,3 13,8 14,4 23,1 19,0 6 3 11 6 N 1016,7 60 0,0
16.07.2018 00:00:00 17,4 13,3 15,4 23,5 19,0 7 4 22 12 NNW 1016,4 60 0,0
15.07.2018 23:00:00 19,3 13,5 17,7 23,8 19,0 16 9 25 14 ESE 1015,9 60 0,0
15.07.2018 22:00:00 19,4 13,8 18,2 24,2 19,0 11 6 32 18 E 1015,3 60 0,0
15.07.2018 21:00:00 22,2 11,9 20,9 24,6 19,0 20 11 38 21 NE 1014,7 60 0,0
15.07.2018 20:00:00 21,9 13,3 21,2 24,9 19,0 6 3 38 21 NNW 1014,4 60 0,0
15.07.2018 19:00:00 24,5 15,1 23,6 25,2 19,0 14 8 29 15 WSW 1012,8 60 0,0
15.07.2018 18:00:00 26,4 16,0 24,8 25,3 19,0 9 5 18 10 W 1011,7 53 0,0
15.07.2018 17:00:00 28,2 12,5 28,1 25,1 19,0 10 6 24 13 WSW 1011,3 60 0,0
15.07.2018 16:00:00 29,3 13,5 33,7 24,6 18,9 13 7 27 15 WSW 1011,8 60 0,0
15.07.2018 15:00:00 28,2 14,4 34,4 23,9 18,9 10 5 23 12 W 1012,5 19 0,0
15.07.2018 14:00:00 27,7 14,7 33,3 23,2 18,9 4 2 21 11 WSW 1013,4 19 0,0
15.07.2018 13:00:00 26,0 15,4 31,9 22,5 19,0 5 3 14 8 SSW 1014,3 60 0,0
15.07.2018 12:00:00 24,1 14,5 28,9 22,0 18,9 4 2 13 7 SSW 1015,4 60 0,0
15.07.2018 11:00:00 21,4 15,5 21,9 21,7 19,0 6 3 18 10 ENE 1016,3 40 0,0
15.07.2018 10:00:00 19,1 15,2 19,5 21,6 18,9 8 5 18 10 WSW 1017,3 58 0,0
15.07.2018 09:00:00 18,0 14,5 17,0 21,6 18,9 3 1 9 5 SE 1016,9 60 0,0
15.07.2018 08:00:00 16,4 14,4 15,2 21,7 18,9 7 4 12 7 ENE 1017,1 60 0,0
15.07.2018 07:00:00 15,3 14,2 12,9 21,9 18,9 5 3 9 5 NNE 1017,3 52 0,0
15.07.2018 06:00:00 13,7 13,4 12,6 22,3 18,9 4 2 8 5 NNE 1017,3 43 0,0
15.07.2018 05:00:00 14,3 13,8 13,0 22,6 18,9 5 3 11 6 NNE 1017,5 49 0,0
15.07.2018 04:00:00 14,7 14,2 13,8 22,9 18,9 5 3 12 7 NE 1017,5 38 0,0
15.07.2018 03:00:00 15,4 14,8 14,6 23,2 18,9 11 6 17 9 NE 1017,6 47 0,0
15.07.2018 02:00:00 16,0 15,0 15,3 23,6 18,9 12 6 16 9 NE 1017,6 58 0,0
15.07.2018 01:00:00 16,4 15,1 15,6 24,0 18,9 14 8 21 11 NE 1017,8 59 0,0
15.07.2018 00:00:00 17,2 15,2 16,0 24,4 18,9 12 7 21 11 NE 1017,8 60 0,0
14.07.2018 23:00:00 17,7 15,3 16,5 24,9 18,9 11 6 26 14 NNE 1017,7 60 0,0
14.07.2018 22:00:00 17,9 15,2 16,5 25,5 18,9 8 5 55 30 N 1017,7 59 1,8
14.07.2018 21:00:00 18,0 16,8 16,0 26,3 18,9 29 16 51 27 S 1018,4 2,2 15,5
14.07.2018 20:00:00 24,1 13,6 22,9 26,8 18,9 5 3 36 19 ENE 1014,8 58 0,0
14.07.2018 19:00:00 24,1 14,5 24,5 26,9 18,9 21 11 38 21 NW 1014,8 20 0,0
14.07.2018 18:00:00 29,5 13,7 30,6 26,6 18,9 16 9 31 17 WNW 1013,3 20 0,0
14.07.2018 17:00:00 31,1 14,3 35,8 26,0 18,9 18 10 29 16 SSW 1013,1 20 0,0
14.07.2018 16:00:00 30,6 13,8 37,0 25,3 18,9 13 7 31 17 WSW 1013,6 60 0,0
14.07.2018 15:00:00 30,3 14,0 31,9 24,7 18,9 8 4 33 18 SW 1014,1 18 0,0
14.07.2018 14:00:00 28,7 14,1 29,4 24,2 18,9 6 4 22 12 WSW 1014,9 60 0,0
14.07.2018 13:00:00 29,4 13,6 32,9 23,5 18,9 9 5 21 11 W 1014,5 20 0,0
14.07.2018 12:00:00 27,8 13,0 32,0 23,1 18,9 8 4 16 9 SW 1015,6 45 0,0
14.07.2018 11:00:00 26,7 12,7 31,7 22,7 18,9 6 3 14 7 S 1016,3 18 0,0
14.07.2018 10:00:00 25,4 12,3 25,2 22,6 18,9 2 1 11 6 ENE 1016,7 60 0,0
14.07.2018 09:00:00 21,9 11,9 21,0 22,5 18,8 3 2 11 6 ENE 1017,7 59 0,0
14.07.2018 08:00:00 19,3 13,0 15,5 22,7 18,9 5 3 8 5 ENE 1018,3 50 0,0
14.07.2018 07:00:00 16,6 12,9 14,4 22,9 18,9 5 3 8 4 NE 1018,8 48 0,0
14.07.2018 06:00:00 16,5 12,8 14,4 23,2 18,9 4 2 10 6 ENE 1018,8 51 0,0
14.07.2018 05:00:00 16,3 12,5 14,2 23,5 18,8 5 3 11 6 NE 1018,9 54 0,0
14.07.2018 04:00:00 16,8 12,7 14,7 23,8 18,9 5 3 12 7 NE 1018,5 57 0,0
14.07.2018 03:00:00 17,4 12,5 14,5 24,2 18,8 6 3 12 7 N 1018,7 60 0,0
14.07.2018 02:00:00 17,5 12,6 15,0 24,6 18,9 6 3 12 6 NE 1018,4 60 0,0
14.07.2018 01:00:00 18,3 12,5 15,3 25,0 18,9 6 4 11 6 NNE 1018,3 60 0,0
14.07.2018 00:00:00 19,7 13,2 16,2 25,3 18,8 5 3 9 5 N 1017,9 10 0,0
13.07.2018 23:00:00 20,0 13,0 16,5 25,8 18,8 7 4 11 6 ENE 1017,6 60 0,0
13.07.2018 22:00:00 23,7 12,0 18,8 26,1 18,8 6 3 14 8 NE 1016,6 51 0,0
13.07.2018 21:00:00 25,7 12,2 24,7 26,4 18,8 8 4 18 10 NW 1015,4 60 0,0
13.07.2018 20:00:00 28,7 10,4 28,2 26,5 18,8 8 4 16 9 WNW 1014,8 60 0,0
13.07.2018 19:00:00 30,4 10,4 30,1 26,4 18,8 8 4 19 11 W 1014,6 55 0,0
13.07.2018 18:00:00 29,1 8,7 30,3 26,3 18,8 15 8 27 14 WSW 1015,0 60 0,0
13.07.2018 17:00:00 30,2 8,0 34,9 25,7 18,8 14 8 31 17 W 1014,9 45 0,0
13.07.2018 16:00:00 30,3 10,3 36,0 25,0 18,8 13 7 36 19 SW 1015,3 20 0,0
13.07.2018 15:00:00 29,3 10,4 35,3 24,2 18,8 10 5 30 16 W 1015,7 42 0,0
13.07.2018 14:00:00 28,2 10,4 34,4 23,4 18,8 6 4 23 12 N 1016,3 49 0,0
13.07.2018 13:00:00 27,4 8,3 32,7 22,6 18,8 9 5 18 10 W 1016,9 13 0,0
13.07.2018 12:00:00 25,9 13,1 29,8 22,1 18,8 7 4 18 10 W 1017,4 9 0,0
13.07.2018 11:00:00 24,3 10,9 29,9 21,6 18,8 3 2 12 6 ENE 1017,7 60 0,0
13.07.2018 10:00:00 23,0 12,3 26,2 21,4 18,8 3 1 10 6 SSW 1018,2 47 0,0
13.07.2018 09:00:00 20,9 12,3 21,2 21,4 18,8 3 2 9 5 ENE 1018,7 48 0,0
13.07.2018 08:00:00 17,7 11,3 13,6 21,5 18,8 8 4 12 6 ENE 1019,2 47 0,0
13.07.2018 07:00:00 14,5 11,6 10,4 21,8 18,8 8 4 11 6 NE 1019,6 25 0,0
13.07.2018 06:00:00 12,7 10,9 10,3 22,1 18,8 5 3 12 6 NE 1019,8 38 -
13.07.2018 05:00:00 12,8 11,0 10,8 22,4 18,8 5 3 13 7 NE 1019,6 33 0,0
13.07.2018 04:00:00 14,2 11,7 11,4 22,7 18,8 10 5 16 8 NE 1019,2 38 0,0
13.07.2018 03:00:00 14,4 11,5 11,7 23,1 18,8 9 5 14 8 NE 1019,0 41 0,0
13.07.2018 02:00:00 14,9 12,0 12,0 23,5 18,8 10 5 12 6 NNE 1018,5 42 0,0
13.07.2018 01:00:00 15,6 12,2 12,4 23,9 18,8 9 5 11 6 NE 1018,4 46 0,0
13.07.2018 00:00:00 16,1 12,3 13,2 24,2 18,8 6 3 11 6 NE 1017,9 52 0,0
12.07.2018 23:00:00 18,0 12,2 14,5 24,7 18,8 6 4 14 8 NNE 1017,3 60 0,0
12.07.2018 22:00:00 19,9 12,2 15,9 25,0 18,8 5 3 9 5 NW 1016,5 11 0,0
12.07.2018 21:00:00 23,9 11,6 22,4 25,2 18,8 4 2 13 7 W 1015,2 60 0,0
12.07.2018 20:00:00 25,2 11,4 25,1 25,3 18,8 10 6 21 11 W 1014,7 60 0,0
12.07.2018 19:00:00 25,5 11,6 26,1 25,3 18,8 12 7 25 14 W 1014,3 56 0,0
12.07.2018 18:00:00 26,0 11,4 27,6 25,2 18,8 11 6 27 15 W 1014,0 60 0,0
12.07.2018 17:00:00 27,1 8,5 30,1 24,8 18,8 10 5 29 16 NNW 1013,9 59 0,0
12.07.2018 16:00:00 26,5 8,0 32,5 24,2 18,8 9 5 26 14 NNW 1014,1 41 0,0
12.07.2018 15:00:00 26,0 9,3 31,9 23,5 18,8 9 5 25 13 WNW 1014,4 40 0,0
12.07.2018 14:00:00 25,1 8,1 30,8 22,8 18,8 8 5 20 11 NW 1015,0 42 0,0
12.07.2018 13:00:00 23,7 8,5 25,2 22,1 18,7 11 6 23 12 NW 1015,3 44 0,0
12.07.2018 12:00:00 22,6 10,4 23,3 21,7 18,7 5 3 20 11 NW 1015,5 19 0,0
12.07.2018 11:00:00 21,2 10,1 25,0 21,4 18,7 6 4 16 9 SW 1015,6 57 0,0
12.07.2018 10:00:00 20,1 9,9 23,2 21,2 18,7 6 3 13 7 W 1016,0 60 0,0
12.07.2018 09:00:00 18,9 9,9 20,2 21,2 18,7 4 2 10 5 N 1016,1 42 0,0
12.07.2018 08:00:00 16,8 9,7 11,6 21,4 18,7 3 2 6 4 E 1016,5 44 0,0
12.07.2018 07:00:00 13,1 9,9 7,8 21,7 18,7 0 0 11 6 N 1017,0 31 0,0
12.07.2018 06:00:00 10,8 8,6 7,7 22,1 18,7 5 3 10 5 ENE 1017,4 58 0,0
12.07.2018 05:00:00 11,0 8,7 8,2 22,5 18,7 5 3 9 5 NNE 1017,0 57 0,0
12.07.2018 04:00:00 11,5 8,7 8,9 22,9 18,7 6 3 8 4 NE 1016,9 57 0,0
12.07.2018 03:00:00 13,0 8,7 9,7 23,3 18,7 6 3 12 6 NE 1016,6 60 0,0
12.07.2018 02:00:00 14,9 8,6 11,4 23,7 18,7 6 3 11 6 NNW 1016,3 60 0,0
12.07.2018 01:00:00 16,9 8,1 12,2 24,2 18,7 2 1 18 10 N 1015,8 60 0,0
12.07.2018 00:00:00 17,9 8,2 14,9 24,6 18,7 8 4 26 14 N 1015,5 60 0,0
11.07.2018 23:00:00 19,0 8,0 16,3 25,0 18,7 15 8 29 16 NNE 1015,0 60 0,0
11.07.2018 22:00:00 20,0 8,0 17,5 25,5 18,7 15 8 30 16 NNE 1014,5 34 0,0
11.07.2018 21:00:00 22,0 8,8 21,6 25,7 18,7 10 5 29 16 N 1013,6 8 0,0
11.07.2018 20:00:00 24,3 8,7 24,4 25,8 18,7 17 9 27 15 NNE 1012,7 60 0,0
11.07.2018 19:00:00 25,7 9,1 29,8 25,7 18,7 13 7 32 17 N 1012,2 48 0,0
11.07.2018 18:00:00 26,3 8,7 31,3 25,5 18,7 14 8 30 16 N 1011,8 45 0,0
11.07.2018 17:00:00 26,1 7,6 - - - 15 8 35 19 NW 1011,7 10 -
11.07.2018 16:00:00 26,0 8,5 30,9 24,4 18,7 15 8 36 19 NNW 1011,8 41 0,0
11.07.2018 15:00:00 25,6 9,8 30,7 23,7 18,7 17 9 35 19 NW 1012,1 43 0,0
11.07.2018 14:00:00 25,1 7,2 29,8 23,0 18,7 14 8 31 17 NW 1012,4 46 0,0
11.07.2018 13:00:00 23,8 10,5 28,1 22,4 18,7 15 8 35 19 NW 1012,9 53 0,0
11.07.2018 12:00:00 22,9 11,0 24,7 22,0 18,7 16 9 28 15 WNW 1013,4 54 0,0
11.07.2018 11:00:00 22,2 11,6 25,5 21,7 18,6 13 7 27 14 NW 1013,6 53 0,0
11.07.2018 10:00:00 20,3 11,5 23,4 21,6 18,6 8 4 20 11 W 1014,3 41 0,0
11.07.2018 09:00:00 18,6 10,7 20,1 21,6 18,6 5 3 16 9 NW 1014,7 40 0,0
11.07.2018 08:00:00 17,5 11,1 13,3 21,8 18,6 2 1 6 3 N 1014,9 19 0,0
11.07.2018 07:00:00 14,3 11,3 9,7 22,1 18,7 5 3 6 4 E 1015,3 37 0,0
11.07.2018 06:00:00 12,2 10,4 9,7 22,5 18,7 4 2 8 4 NE 1015,7 40 0,0

tt = Température de l'air
td = dewpoint
tt 5cm = Température de l'air 5cm
tt -20cm = Température de l'air -20cm
tt -100cm = Température de l'air -100cm
ff = Vitesse du vent
fx = gusts
dd = Direction du vent
ppp = reduced air pressure
vv = visibility
rr = Quantités de précipitations

stations d'obs. à proximité